Regional Weather Roundup
Issued by NWS

Home | Current Version | Previous Version | Text Only | Print | Product List | Glossary On
Versions: 1 2 3 4 5 6 7 8 9 10 11 12 13 14 15 16 17 18 19 20 21 22 23 24 25 26 27 28 29 30 31 32 33 34 35 36 37 38 39 40 41 42 43 44 45 46 47 48 49 50
148
ASUS43 KTOP 200008
RWRKS

WEATHER ROUNDUP FOR KANSAS
NATIONAL WEATHER SERVICE GOODLAND KS
700 PM CDT TUE SEP 19 2017

NOTE:  "FAIR" INDICATES FEW OR NO CLOUDS BELOW 12,000 FEET WITH NO
SIGNIFICANT WEATHER AND/OR OBSTRUCTIONS TO VISIBILITY.

KSZ001>006-013>018-027>032-041>047-200100-
NORTHWEST KANSAS

CITY           SKY/WX    TMP DP  RH WIND       PRES   REMARKS
GOODLAND       CLOUDY    84  23  10 SW12      29.56R
6HR MIN TEMP:  84; 6HR MAX TEMP:  92;

HAYS           CLOUDY    93  36  13 SW21G26   29.52R
HILL CITY      CLOUDY    93  33  12 S16G23    29.49S
6HR MIN TEMP:  91; 6HR MAX TEMP: 100;

RUSSELL        CLOUDY    94  38  14 S21G32    29.51F
6HR MIN TEMP:  92; 6HR MAX TEMP: 100;

$$

KSZ061>065-074>080-084>089-200100-
SOUTHWEST KANSAS

CITY           SKY/WX    TMP DP  RH WIND       PRES   REMARKS
DODGE CITY     CLOUDY    90  28  11 S16G26    29.59S
6HR MIN TEMP:  90; 6HR MAX TEMP: 100;

ELKHART          N/A     85  34  16 S13         N/A
GARDEN CITY    CLOUDY    86  33  15 S17       29.57S
6HR MIN TEMP:  86; 6HR MAX TEMP:  98;

GREAT BEND     CLOUDY    92  57  30 S22G30    29.55S
LIBERAL        CLOUDY    86  36  16 S16       29.62F
PRATT          CLEAR     90  58  34 S24G32    29.61S
6HR MIN TEMP:  89; 6HR MAX TEMP:  97;

$$

KSZ066>073-081>083-090>101-200100-
SOUTHEAST KANSAS

CITY           SKY/WX    TMP DP  RH WIND       PRES   REMARKS
CHANUTE        CLEAR     84  71  65 S16       29.73S
6HR MIN TEMP:  84; 6HR MAX TEMP:  90;

COFFEYVILLE    CLEAR     85  71  63 S14       29.72S
6HR MIN TEMP:  80; 6HR MAX TEMP:  89;

HUTCHINSON     CLEAR     92  63  38 S25G35    29.59R
6HR MIN TEMP:  89; 6HR MAX TEMP:  98;

MEDICINE LODGE   N/A     90  63  40 S21G29    29.60R
NEWTON         CLEAR     90  67  46 S29G37    29.63R
WICHITA INTL   PTCLDY    92  66  42 S29G37    29.62S
6HR MIN TEMP:  89; 6HR MAX TEMP:  97;

WICHITA JABRA  CLEAR     90  68  48 S20G29    29.63S
6HR MIN TEMP:  88; 6HR MAX TEMP:  94;

WICHITA MCCONL CLEAR     91  66  42 S22G28    29.64S
WINFIELD       CLEAR     90  68  48 S20G30    29.67S
6HR MIN TEMP:  88; 6HR MAX TEMP:  96;

$$

KSZ007>012-019>026-033>040-048>060-102>105-200100-
NORTHEAST KANSAS

CITY           SKY/WX    TMP DP  RH WIND       PRES   REMARKS
CONCORDIA      CLOUDY    89  67  47 S21G30    29.53F
6HR MIN TEMP:  86; 6HR MAX TEMP:  91;

EMPORIA        CLEAR     84  72  67 SE18G32   29.66F
6HR MIN TEMP:  84; 6HR MAX TEMP:  91;

LAWRENCE       CLEAR     83  69  62 SE14      29.69R
6HR MIN TEMP:  83; 6HR MAX TEMP:  90;

MANHATTAN      CLEAR     89  72  56 S15G26    29.59S HX  96
6HR MIN TEMP:  89; 6HR MAX TEMP:  97;

MARYSVILLE     CLEAR     88  70  55 S15G22    29.58F
OLATHE IND     CLEAR     82  67  60 SE18G29   29.72S
6HR MIN TEMP:  82; 6HR MAX TEMP:  88;

OLATHE EXE     CLEAR     81  69  67 S16       29.72S
6HR MIN TEMP:  81; 6HR MAX TEMP:  86;

SALINA         CLEAR     96  62  32 S25G37    29.55F HX  97
6HR MIN TEMP:  93; 6HR MAX TEMP:  98;

TOPEKA BILLARD CLEAR     85  72  65 SE18G25   29.65F
6HR MIN TEMP:  85; 6HR MAX TEMP:  91;

TOPEKA FORBES  CLEAR     85  72  65 SE15      29.67S
6HR MIN TEMP:  85; 6HR MAX TEMP:  91;

$$




USA.gov is the U.S. government's official web portal to all federal, state and local government web resources and services.